This demonstration page uses our WeatherBlox Daily Observations layout. Learn more.

Left ArrowRight Arrow

39.08367, -84.50855

Hourly Observations for March 26, 2015

Temp ( °F °C ) Dew Point ( °F °C ) Humidity (%) Winds ( mph kmh ) Pressure ( in mb ) Visibility ( mi km ) Precip ( " mm )
12:53 am 00:53 Cloudy 48 8.9 46 7.8 93 93 N N/A 29.97 1015 9 14.48406 N/A
1:53 am 01:53 Mostly Cloudy 48 8.9 46 7.8 93 93 VRB 3 6 29.93 1014 8 12.87472 N/A
2:53 am 02:53 Mostly Cloudy 47 8.3 46 7.8 97 97 N 3 6 29.91 1013 7 11.26538 N/A
3:53 am 03:53 Cloudy with Light Rain 50 10 47 8.3 89 89 N N/A 29.89 1012 8 12.87472 N/A
4:37 am 04:37 Cloudy with Thunderstorms 48 9 46 8 94 94 NNW 15 24 29.94 1014 4 6.43736 N/A
4:48 am 04:48 Cloudy with Thunderstorms 48 9 46 8 94 94 NNE 16 26 29.91 1013 2.5 4.02335 0.09 2.286
4:51 am 04:51 Cloudy with Light Thunderstorms 48 9 46 8 94 94 NNE 15 24 29.91 1013 3 4.82802 0.1 2.54
4:53 am 04:53 Cloudy with Nearby Thunderstorms 48 8.9 47 8.3 96 96 NNE 14 22 29.87 1011 4 6.43736 0.1 2.54
5:00 am 05:00 Cloudy with Nearby Thunderstorms 46 8 46 8 100 100 NE 9 15 29.91 1013 4 6.43736 N/A
5:08 am 05:08 Cloudy with Light Rain 46 8 46 8 100 100 NE 10 17 29.91 1013 5 8.0467 N/A
5:53 am 05:53 Cloudy with Rain 46 8 N/A N/A VRB 3 6 29.85 1011 3 4.82802 0.07 1.778
6:53 am 06:53 Cloudy with Rain 46 7.8 46 7.8 100 100 NE 5 7 29.86 1011 4 6.43736 0.15 3.81
7:45 am 07:45 Cloudy with Light Rain 46 7.8 46 7.8 100 100 N 12 19 29.88 1012 4 6.43736 0.03 0.762
7:53 am 07:53 Cloudy with Heavy Rain 46 7.8 46 7.8 100 100 NNW 7 11 29.86 1011 3 4.82802 0.06 1.524
8:12 am 08:12 Cloudy with Light Rain 46 8 45 7 93 93 NNW 10 17 29.91 1013 4 6.43736 N/A
8:53 am 08:53 Cloudy with Rain 45 7.2 44 6.7 97 97 N 7 11 29.88 1012 3 4.82802 0.1 2.54
9:53 am 09:53 Cloudy with Mist and Fog 45 7.2 43 6.1 93 93 NNE 3 6 29.86 1011 6 9.65604 0.03 0.762
10:48 am 10:48 Cloudy with Light Rain 45 7 45 7 100 100 NNW 8 13 29.91 1013 3 4.82802 N/A
10:53 am 10:53 Cloudy with Light Rain 45 7.2 44 6.7 97 97 NNW 7 11 29.89 1012 6 9.65604 0.04 1.016
11:00 am 11:00 Cloudy with Light Rain 45 7 45 7 100 100 NNW 7 11 29.91 1013 6 9.65604 N/A
11:53 am 11:53 Cloudy with Light Rain 45 7.2 43 6.1 93 93 NNW 10 17 29.91 1013 10 16.0934 0.01 0.254
12:53 pm 12:53 Cloudy with Light Rain 46 7.8 44 6.7 93 93 NNW 8 13 29.89 1012 7 11.26538 0.02 0.508
1:53 pm 13:53 Cloudy with Light Rain 46 7.8 43 6.1 89 89 N 9 15 29.89 1012 10 16.0934 N/A
2:53 pm 14:53 Cloudy with Light Rain 47 8.3 43 6.1 86 86 NW 7 11 29.88 1012 9 14.48406 N/A
3:53 pm 15:53 Cloudy with Light Rain 47 8.3 43 6.1 86 86 NW 7 11 29.9 1013 7 11.26538 N/A
4:53 pm 16:53 Cloudy 46 7.8 41 5 83 83 NW 13 20 29.91 1013 10 16.0934 0.01 0.254
5:38 pm 17:38 Cloudy 43 6.1 40 4.4 89 89 NNW 8 13 29.94 1014 10 16.0934 N/A
5:53 pm 17:53 Cloudy 43 6.1 38 3.3 82 82 NNW 9 15 29.92 1013 10 16.0934 N/A
6:09 pm 18:09 Cloudy 43 6.1 37 2.8 80 80 NW 8 13 29.94 1014 10 16.0934 N/A
6:53 pm 18:53 Cloudy 43 6.1 36 2.2 76 76 N 7 11 29.93 1014 10 16.0934 N/A
7:53 pm 19:53 Cloudy 42 5.6 35 1.7 76 76 N 10 17 29.95 1014 10 16.0934 N/A
8:53 pm 20:53 Cloudy 42 5.6 35 1.7 76 76 VRB 5 7 29.98 1015 10 16.0934 N/A
9:01 pm 21:01 Cloudy 42 5.6 35 1.7 76 76 NW 5 7 29.97 1015 10 16.0934 N/A
9:53 pm 21:53 Mostly Cloudy 41 5 34 1.1 76 76 NNW 5 7 29.99 1016 10 16.0934 N/A
10:53 pm 22:53 Mostly Cloudy 41 5 33 0.6 73 73 WNW 3 6 29.98 1015 10 16.0934 N/A
11:53 pm 23:53 Cloudy 40 4.4 33 0.6 77 77 W 5 7 30 1016 10 16.0934 N/A

Powered by AerisWeather